When you browse on this site, cookies collect data to enhance your experience and personalize the content and advertising you see.
Visit our Privacy Policy to learn more. By continuing to use the site, you agree to this use of cookies and data.
  • In Hungary
  • List of Countries
  • For 7 days
  • Water Temperature
  • Satellite Maps
  • Weather Map
  • News
  • Weather Widgets
  • user-avatar
    Login

    Hourly Weather Cambridge

    Today, 22 February, Friday

    Time Temperature Precipitation Wind Pressure Humidity
    00:00 +7°C° 0 mm 2 mps 772 mmHg 93%
    01:00 +7°C° 0 mm 2 mps 772 mmHg 92%
    02:00 +7°C° 0 mm 2 mps 772 mmHg 91%
    03:00 +7°C° 0 mm 2 mps 772 mmHg 91%
    04:00 +7°C° 0 mm 1 mps 773 mmHg 89%
    05:00 +7°C° 0 mm 1 mps 773 mmHg 88%
    06:00 +7°C° 0 mm 1 mps 774 mmHg 88%
    07:00 +8°C° 0 mm 1 mps 774 mmHg 84%
    08:00 +9°C° 0 mm 1 mps 774 mmHg 80%
    09:00 +10°C° 0 mm 1 mps 774 mmHg 76%
    10:00 +10°C° 0 mm 2 mps 774 mmHg 71%
    11:00 +13°C° 0 mm 2 mps 775 mmHg 66%
    12:00 +15°C° 0 mm 2 mps 775 mmHg 61%
    13:00 +14°C° 0 mm 3 mps 775 mmHg 62%
    14:00 +14°C° 0 mm 3 mps 775 mmHg 63%
    15:00 +14°C° 0 mm 3 mps 775 mmHg 63%
    16:00 +13°C° 0 mm 3 mps 774 mmHg 70%
    17:00 +11°C° 0 mm 3 mps 774 mmHg 77%
    18:00 +9°C° 0 mm 3 mps 774 mmHg 84%
    19:00 +9°C° 0 mm 3 mps 774 mmHg 84%
    20:00 +9°C° 0 mm 3 mps 774 mmHg 84%
    21:00 +7°C° 0 mm 4 mps 774 mmHg 84%
    22:00 +7°C° 0 mm 4 mps 774 mmHg 86%
    23:00 +7°C° 0 mm 4 mps 774 mmHg 89%

    Tomorrow, 23 February, Saturday

    Time Temperature Precipitation Wind Pressure Humidity
    00:00 +7°C° 0 mm 4 mps 774 mmHg 91%
    01:00 +7°C° 0 mm 4 mps 774 mmHg 92%
    02:00 +8°C° 0 mm 4 mps 774 mmHg 93%
    03:00 +8°C° 0 mm 4 mps 773 mmHg 94%
    04:00 +7°C° 0 mm 4 mps 773 mmHg 94%
    05:00 +7°C° 0 mm 4 mps 773 mmHg 95%
    06:00 +8°C° 0 mm 3 mps 773 mmHg 95%
    07:00 +7°C° 0 mm 4 mps 773 mmHg 92%
    08:00 +8°C° 0 mm 4 mps 774 mmHg 89%
    09:00 +10°C° 0 mm 4 mps 774 mmHg 85%
    10:00 +11°C° 0 mm 4 mps 774 mmHg 79%
    11:00 +12°C° 0 mm 5 mps 774 mmHg 72%
    12:00 +14°C° 0 mm 5 mps 774 mmHg 65%
    13:00 +14°C° 0 mm 5 mps 773 mmHg 64%
    14:00 +14°C° 0 mm 5 mps 773 mmHg 63%
    15:00 +14°C° 0 mm 5 mps 773 mmHg 62%
    16:00 +12°C° 0 mm 4 mps 773 mmHg 69%
    17:00 +10°C° 0 mm 4 mps 773 mmHg 76%
    18:00 +9°C° 0 mm 3 mps 773 mmHg 83%
    19:00 +8°C° 0 mm 3 mps 773 mmHg 84%
    20:00 +8°C° 0 mm 2 mps 774 mmHg 86%
    21:00 +7°C° 0 mm 2 mps 774 mmHg 87%
    22:00 +7°C° 0 mm 2 mps 774 mmHg 86%
    23:00 +7°C° 0 mm 2 mps 774 mmHg 85%

    Day after tomorrow, 24 February, Sunday

    Time Temperature Precipitation Wind Pressure Humidity
    00:00 +6°C° 0 mm 2 mps 774 mmHg 84%
    01:00 +6°C° 0 mm 2 mps 774 mmHg 83%
    02:00 +6°C° 0 mm 2 mps 774 mmHg 81%
    03:00 +6°C° 0 mm 2 mps 774 mmHg 80%
    04:00 +6°C° 0 mm 2 mps 774 mmHg 77%
    05:00 +5°C° 0 mm 3 mps 774 mmHg 75%
    06:00 +5°C° 0 mm 3 mps 774 mmHg 73%
    07:00 +5°C° 0 mm 3 mps 775 mmHg 70%
    08:00 +7°C° 0 mm 2 mps 775 mmHg 67%
    09:00 +7°C° 0 mm 2 mps 775 mmHg 64%
    10:00 +9°C° 0 mm 2 mps 776 mmHg 58%
    11:00 +10°C° 0 mm 3 mps 776 mmHg 52%
    12:00 +12°C° 0 mm 3 mps 776 mmHg 46%
    13:00 +12°C° 0 mm 3 mps 775 mmHg 46%
    14:00 +12°C° 0 mm 3 mps 775 mmHg 46%
    15:00 +12°C° 0 mm 3 mps 775 mmHg 46%
    16:00 +11°C° 0 mm 3 mps 775 mmHg 52%
    17:00 +9°C° 0 mm 3 mps 775 mmHg 59%
    18:00 +7°C° 0 mm 3 mps 776 mmHg 65%
    19:00 +6°C° 0 mm 2 mps 776 mmHg 65%
    20:00 +5°C° 0 mm 2 mps 776 mmHg 64%
    21:00 +5°C° 0 mm 2 mps 776 mmHg 64%
    22:00 +5°C° 0 mm 2 mps 776 mmHg 64%
    23:00 +5°C° 0 mm 2 mps 777 mmHg 64%

    25 February, Monday

    Time Temperature Precipitation Wind Pressure Humidity
    00:00 +6°C° 0 mm 1 mps 777 mmHg 64%
    01:00 +6°C° 0 mm 1 mps 777 mmHg 65%
    02:00 +5°C° 0 mm 2 mps 777 mmHg 66%
    03:00 +5°C° 0 mm 2 mps 776 mmHg 67%
    04:00 +5°C° 0 mm 2 mps 776 mmHg 68%
    05:00 +5°C° 0 mm 2 mps 776 mmHg 68%
    06:00 +5°C° 0 mm 2 mps 776 mmHg 69%
    07:00 +6°C° 0 mm 2 mps 777 mmHg 68%
    08:00 +7°C° 0 mm 2 mps 777 mmHg 66%
    09:00 +7°C° 0 mm 2 mps 777 mmHg 65%
    10:00 +9°C° 0 mm 2 mps 777 mmHg 60%
    11:00 +10°C° 0 mm 2 mps 777 mmHg 56%
    12:00 +13°C° 0 mm 2 mps 777 mmHg 51%
    13:00 +13°C° 0 mm 2 mps 777 mmHg 50%
    14:00 +14°C° 0 mm 2 mps 777 mmHg 49%
    15:00 +15°C° 0 mm 2 mps 776 mmHg 48%
    16:00 +13°C° 0 mm 2 mps 776 mmHg 54%
    17:00 +10°C° 0 mm 2 mps 776 mmHg 60%
    18:00 +8°C° 0 mm 2 mps 776 mmHg 66%
    19:00 +8°C° 0 mm 2 mps 776 mmHg 65%
    20:00 +7°C° 0 mm 2 mps 776 mmHg 64%
    21:00 +6°C° 0 mm 2 mps 776 mmHg 63%
    22:00 +6°C° 0 mm 2 mps 776 mmHg 64%
    23:00 +6°C° 0 mm 2 mps 776 mmHg 64%

    26 February, Tuesday

    Time Temperature Precipitation Wind Pressure Humidity
    00:00 +6°C° 0 mm 2 mps 776 mmHg 64%
    01:00 +6°C° 0 mm 2 mps 776 mmHg 67%
    02:00 +7°C° 0 mm 1 mps 775 mmHg 69%
    03:00 +7°C° 0 mm 1 mps 775 mmHg 71%
    04:00 +7°C° 0 mm 1 mps 775 mmHg 73%
    05:00 +6°C° 0 mm 2 mps 775 mmHg 75%
    06:00 +6°C° 0 mm 2 mps 774 mmHg 77%
    07:00 +7°C° 0 mm 2 mps 774 mmHg 75%
    08:00 +8°C° 0 mm 2 mps 775 mmHg 74%
    09:00 +9°C° 0 mm 2 mps 775 mmHg 72%
    10:00 +11°C° 0 mm 3 mps 774 mmHg 67%
    11:00 +13°C° 0 mm 3 mps 774 mmHg 62%
    12:00 +15°C° 0 mm 4 mps 774 mmHg 57%
    13:00 +15°C° 0 mm 4 mps 773 mmHg 56%
    14:00 +15°C° 0 mm 4 mps 773 mmHg 55%
    15:00 +15°C° 0 mm 5 mps 772 mmHg 53%
    16:00 +13°C° 0 mm 4 mps 772 mmHg 61%
    17:00 +11°C° 0 mm 4 mps 772 mmHg 69%
    18:00 +9°C° 0 mm 3 mps 772 mmHg 77%
    19:00 +8°C° 0 mm 3 mps 772 mmHg 79%
    20:00 +8°C° 0 mm 3 mps 772 mmHg 82%
    21:00 +8°C° 0 mm 3 mps 772 mmHg 84%
    22:00 +7°C° 0 mm 3 mps 772 mmHg 86%
    23:00 +7°C° 0 mm 2 mps 772 mmHg 88%

    27 February, Wednesday

    Time Temperature Precipitation Wind Pressure Humidity
    00:00 +7°C° 0 mm 2 mps 771 mmHg 90%
    01:00 +7°C° 0 mm 2 mps 771 mmHg 91%
    02:00 +7°C° 0 mm 2 mps 771 mmHg 92%
    03:00 +7°C° 0 mm 2 mps 771 mmHg 93%
    04:00 +7°C° 0 mm 2 mps 771 mmHg 94%
    05:00 +7°C° 0 mm 2 mps 770 mmHg 94%
    06:00 +6°C° 0 mm 2 mps 770 mmHg 95%
    07:00 +7°C° 0 mm 2 mps 770 mmHg 93%
    08:00 +8°C° 0 mm 2 mps 770 mmHg 91%
    09:00 +9°C° 0 mm 2 mps 770 mmHg 89%
    10:00 +12°C° 0 mm 2 mps 770 mmHg 82%
    11:00 +14°C° 0 mm 2 mps 770 mmHg 74%
    12:00 +14°C° 0 mm 3 mps 769 mmHg 66%
    13:00 +16°C° 0 mm 3 mps 769 mmHg 65%
    14:00 +16°C° 0 mm 3 mps 768 mmHg 64%
    15:00 +17°C° 0 mm 3 mps 768 mmHg 63%
    16:00 +15°C° 0 mm 2 mps 768 mmHg 69%
    17:00 +14°C° 0 mm 2 mps 768 mmHg 76%
    18:00 +12°C° 0 mm 2 mps 767 mmHg 83%
    19:00 +12°C° 0 mm 2 mps 767 mmHg 84%
    20:00 +10°C° 0 mm 2 mps 767 mmHg 85%
    21:00 +9°C° 0 mm 2 mps 767 mmHg 86%
    22:00 +9°C° 0 mm 2 mps 767 mmHg 87%
    23:00 +8°C° 0 mm 2 mps 767 mmHg 87%
    Show more